TimeCDT,TemperatureF,Dew PointF,Humidity,Sea Level PressureIn,VisibilityMPH,Wind Direction,Wind SpeedMPH,Gust SpeedMPH,PrecipitationIn,Events,Conditions,WindDirDegrees,DateUTC
12:54 AM,61.0,59.0,93,29.96,10.0,SE,4.6,-,N/A,,Clear,140,2013-05-17 05:54:00
1:54 AM,63.0,59.0,87,29.95,10.0,Calm,Calm,-,N/A,,Clear,0,2013-05-17 06:54:00
2:54 AM,63.0,59.0,87,29.95,10.0,Calm,Calm,-,N/A,,Clear,0,2013-05-17 07:54:00
3:54 AM,60.1,59.0,96,29.95,8.0,Calm,Calm,-,N/A,,Clear,0,2013-05-17 08:54:00
4:54 AM,57.9,57.9,100,29.95,4.0,Calm,Calm,-,N/A,,Clear,0,2013-05-17 09:54:00
5:17 AM,57.2,57.2,100,29.96,2.5,East,4.6,-,N/A,,Mostly Cloudy,80,2013-05-17 10:17:00
5:28 AM,60.8,59.0,94,29.97,4.0,Calm,Calm,-,N/A,,Mostly Cloudy,0,2013-05-17 10:28:00
5:54 AM,59.0,57.9,96,29.96,3.0,Calm,Calm,-,N/A,,Scattered Clouds,0,2013-05-17 10:54:00
5:57 AM,57.2,57.2,100,29.97,1.5,Calm,Calm,-,N/A,,Scattered Clouds,0,2013-05-17 10:57:00
6:04 AM,57.2,57.2,100,29.98,3.0,Calm,Calm,-,N/A,,Scattered Clouds,0,2013-05-17 11:04:00
7:54 AM,66.9,64.0,90,29.99,6.0,SE,3.5,-,N/A,,Mostly Cloudy,130,2013-05-17 12:54:00
8:54 AM,70.0,64.0,81,29.99,8.0,ESE,4.6,-,N/A,,Mostly Cloudy,110,2013-05-17 13:54:00
9:54 AM,72.0,64.9,78,29.99,9.0,SE,6.9,-,N/A,,Mostly Cloudy,140,2013-05-17 14:54:00
10:54 AM,73.0,64.9,76,29.99,10.0,SSE,9.2,-,N/A,,Mostly Cloudy,160,2013-05-17 15:54:00
11:54 AM,73.0,63.0,71,29.99,10.0,SSE,6.9,-,N/A,,Overcast,160,2013-05-17 16:54:00
12:54 PM,75.0,64.0,69,29.98,10.0,South,10.4,-,N/A,,Overcast,180,2013-05-17 17:54:00
2:54 PM,75.0,62.1,64,29.96,10.0,South,10.4,-,N/A,,Overcast,170,2013-05-17 19:54:00
3:54 PM,75.9,64.0,67,29.94,10.0,SSE,9.2,-,N/A,,Mostly Cloudy,160,2013-05-17 20:54:00
4:54 PM,78.1,64.0,62,29.93,10.0,South,9.2,-,N/A,,Mostly Cloudy,170,2013-05-17 21:54:00
5:54 PM,75.0,62.1,64,29.94,10.0,South,9.2,-,N/A,,Overcast,170,2013-05-17 22:54:00
6:54 PM,73.9,63.0,68,29.94,10.0,SSE,9.2,19.6,N/A,,Mostly Cloudy,150,2013-05-17 23:54:00
7:54 PM,73.0,64.0,73,29.96,10.0,SSE,8.1,-,N/A,,Overcast,150,2013-05-18 00:54:00
8:54 PM,70.0,64.0,81,29.97,10.0,SSE,5.8,-,N/A,,Overcast,150,2013-05-18 01:54:00
9:54 PM,66.9,63.0,87,29.99,8.0,SE,6.9,-,N/A,,Clear,140,2013-05-18 02:54:00
10:54 PM,66.9,63.0,87,29.99,9.0,SSE,8.1,-,N/A,,Clear,150,2013-05-18 03:54:00
11:54 PM,64.9,62.1,90,29.99,7.0,SE,5.8,-,N/A,,Clear,140,2013-05-18 04:54:00